Showing default

AEROCUBE 7, 40966

Orbit data source: Space-Track

AEROCUBE 7, 40966 is a payload satellite owned by AERO (US) in LEO that was launched on Thu, 08 Oct 2015 UTC via an ATLAS V 401 launch vehicle from the Air Force Western Test Range (AFWTR). Payload-class satellites include a variety of spacecraft equipped with specific instruments for various scientific and technological missions. These include communications satellites like Starlink; space stations such as the ISS; scientific satellites like the Hubble; Earth observation satellites from companies like Planet Labs, Umbra, and HawkEye 360; GPS; miniature CubeSats for education and research; and military/defense satellites.

Loading next visibility...
Identifier
40966, 2015-058C
Orbit
LEO
Country
Flag of USUS
Related business
Manufacturer
AERO
Mission
Operational Defense Technology
Bus & Motor
CUBESAT 1.5U, Unknown motor
Mass
2 kg wet, 2 kg dry
Launch date (UTC)
2015-10-08 (10 years ago)
Launch vehicle
ATLAS V 401
Launch site
Air Force Western Test Range (AFWTR)
Object type
Payload
Rocket body
Debris
Shape & HBR
Box, 0.1 m
Radar Cross Section
0.025 m², Medium (>0.1 m² and < 1m²)

Expand to show TLE details & history
Last TLE update: 23 hours ago

TLE from 23 hours ago
0 AEROCUBE 7
1 40966U 15058C   26067.71390171  .00007369  00000-0  59605-3 0  9997
2 40966  64.7633 199.3176 0120661 101.9776 259.4893 14.94886868350931
Epoch: 2026-03-08T17:08Z
TLE epoch observation values (Epoch: 2026-03-08T17:08:01.107Z)
Latitude
-0.00008°
Longitude
135.89571°
Altitude
601.034 km
Speed
7.551 km/s
True Right ascension
13h 17m 16s
True Declination
0° 00' 00"
Sunlit
Object was in full shadow at epoch
Visualization orbit readout
Latitude
Unknown
Longitude
Unknown
Altitude
Unknown
Speed
Unknown
Apparent Right ascension
Unknown
Apparent Declination
Unknown
Sunlit
N/A
Visualization observer readout
Local Sidereal Time
19:47:40
Azimuth
Unknown
Elevation
Unknown
Doppler factor
Unknown
Orbital elements
Apogee altitude
665.263 km
Perigee altitude
497.317 km
Semi-major axis
6,959.427 km
Eccentricity
0.01207
Inclination
64.7633°
RAAN
199.3176°
Arg. of periapsis
101.9776°
True anomaly
258.13368°
Mean anomaly
259.4893°
Eccentric anomaly
258.8111°
Mean motion
3.73838 °/min
Orbital period
96.3 mins
BSTAR
0.00059605
Loading maneuver chart data...
Computing Atmospheric mass density...
Loading historical data...
Loading historical data...
Loading historical data...
Loading historical data...
Loading historical data...
Loading historical data...
Loading historical data...

Documentation

Showing up to 5 results
|